DW7530 Weather Reports


time (UTC)temp
C
wind
direction
speed
KPH
gust
KPH
rain 1hr
cm
rain 24hr
cm
rain mn
cm
humidity
%
barometer
mb
20260505211511 15 168 3.2 9.7 0.00 0.00 0.00 75 1005.6
20260505210006 14 168 3.2 9.7 0.00 0.00 0.00 76 1005.5
20260505204503 15 145 4.8 12.9 0.00 0.00 0.00 74 1005.6
20260505203002 15 122 4.8 11.3 0.00 0.00 0.00 74 1005.6
20260505201501 15 145 4.8 11.3 0.00 0.00 0.00 75 1005.7
20260505200101 15 144 4.8 12.9 0.00 0.00 0.00 74 1005.8
20260505194600 15 127 3.2 11.3 0.00 0.00 0.00 76 1005.8
20260505193057 14 115 3.2 12.9 0.00 0.00 0.00 76 1006.2
20260505191558 14 135 6.4 12.9 0.00 0.00 0.00 76 1006.2
20260505190055 14 144 6.4 12.9 0.00 0.00 0.00 76 1006.4
20260505184555 14 178 1.6 9.7 0.00 0.03 0.00 76 1006.3
20260505183053 14 162 6.4 12.9 0.00 0.03 0.00 76 1006.3
20260505181552 14 135 6.4 12.9 0.00 0.03 0.00 76 1006.6
20260505180055 13 145 6.4 12.9 0.00 0.03 0.00 77 1006.9
20260505174547 14 137 3.2 11.3 0.00 0.03 0.00 76 1007.3
20260505173045 14 174 3.2 14.5 0.00 0.03 0.00 75 1007.2
20260505171544 15 126 1.6 11.3 0.00 0.03 0.00 76 1007.5
20260505170044 15 125 3.2 14.5 0.00 0.03 0.00 74 1007.7
20260505164543 15 163 4.8 11.3 0.00 0.03 0.00 72 1007.7
20260505163040 14 125 1.6 9.7 0.00 0.03 0.00 75 1007.7
20260505161540 13 135 4.8 11.3 0.00 0.03 0.00 76 1008.3
20260505153044 13 114 4.8 9.7 0.00 0.03 0.00 75 1008.1
20260505151542 14 116 6.4 12.9 0.00 0.03 0.00 75 1008.2
20260505124525 12 116 1.6 9.7 0.00 0.03 0.00 77 1008.9
20260505123023 12 132 1.6 6.4 0.00 0.03 0.00 77 1009.2
20260505121520 11 140 0.0 8.0 0.00 0.03 0.00 79 1009.2
20260505120021 11 140 3.2 6.4 0.00 0.03 0.00 80 1009.3
20260505114515 11 134 0.0 8.0 0.00 0.03 0.00 81 1009.4
20260505113022 10 152 0.0 6.4 0.00 0.03 0.00 84 1009.3
20260505111525 9 152 0.0 3.2 0.00 0.03 0.00 86 1009.2
20260505101521 7 210 0.0 3.2 0.00 0.03 0.00 89 1009.0
20260505100010 7 210 0.0 3.2 0.00 0.03 0.00 88 1009.0
20260505094509 7 210 0.0 1.6 0.00 0.03 0.00 88 1009.0
20260505093007 7 210 0.0 1.6 0.00 0.03 0.00 86 1008.9
20260505091506 8 210 0.0 0.0 0.00 0.03 0.00 83 1008.8
20260505090006 9 210 0.0 1.6 0.00 0.03 0.00 79 1008.8
20260505084523 10 210 1.6 6.4 0.00 0.03 0.00 78 1008.7
20260505083005 10 210 0.0 9.7 0.00 0.03 0.00 76 1008.8
20260505081502 10 210 3.2 9.7 0.00 0.03 0.00 79 1008.8
20260505074600 7 211 0.0 0.0 0.00 0.03 0.00 86 1008.8
20260505073103 8 211 0.0 0.0 0.00 0.03 0.00 85 1008.8
20260505071601 7 211 0.0 1.6 0.00 0.03 0.00 87 1008.8
20260505070105 7 211 0.0 0.0 0.00 0.03 0.00 87 1008.7
20260505064559 7 211 0.0 0.0 0.00 0.03 0.00 86 1008.7
20260505063055 7 211 0.0 0.0 0.00 0.03 0.00 86 1008.7
20260505061613 7 210 0.0 0.0 0.00 0.03 0.00 85 1008.6
20260505060058 8 210 0.0 3.2 0.00 0.03 0.00 83 1008.6
20260505054556 9 211 0.0 3.2 0.00 0.03 0.00 82 1008.5
20260505053049 8 211 0.0 6.4 0.00 0.03 0.00 84 1008.5
20260505051545 6 137 0.0 0.0 0.00 0.03 0.00 91 1008.4
20260505041546 6 137 0.0 0.0 0.00 0.03 0.00 91 1008.3
20260505040055 6 137 0.0 0.0 0.00 0.03 0.00 90 1008.2
20260505034543 6 137 0.0 0.0 0.00 0.03 0.03 90 1008.3
20260505033039 6 137 0.0 0.0 0.00 0.03 0.03 90 1008.1
20260505031547 6 137 0.0 0.0 0.00 0.03 0.03 89 1008.2
20260505030042 7 137 0.0 0.0 0.00 0.03 0.03 89 1008.2
20260505024538 7 137 0.0 0.0 0.00 0.03 0.03 89 1008.3
20260505023037 7 137 0.0 0.0 0.00 0.03 0.03 89 1008.1
20260505021538 7 137 0.0 0.0 0.00 0.03 0.03 89 1008.3
20260505020041 7 137 0.0 0.0 0.00 0.03 0.03 88 1008.1
20260505014541 7 137 0.0 0.0 0.00 0.03 0.03 87 1008.1
20260505013035 7 137 0.0 0.0 0.00 0.03 0.03 87 1008.0
20260505011537 7 137 0.0 0.0 0.00 0.03 0.03 86 1007.9
20260505010036 8 137 0.0 0.0 0.00 0.03 0.03 85 1007.9
20260505004534 8 137 0.0 3.2 0.00 0.03 0.03 83 1007.8
20260505003032 9 139 0.0 6.4 0.00 0.03 0.03 80 1007.3
20260505001533 10 141 0.0 0.0 0.00 0.03 0.03 77 1007.1
20260505000046 11 141 0.0 0.0 0.00 0.03 0.03 73 1007.1
20260504234535 12 141 0.0 0.0 0.00 0.03 0.03 71 1006.9
20260504233031 13 141 1.6 8.0 0.00 0.03 0.03 67 1006.5
20260504231530 15 214 0.0 0.0 0.00 0.03 0.03 58 1006.2
20260504230030 16 214 0.0 1.6 0.00 0.03 0.03 56 1006.2
20260504224530 16 214 0.0 9.7 0.00 0.03 0.03 56 1006.1
20260504223029 16 310 1.6 9.7 0.00 0.03 0.03 54 1006.0
20260504221529 16 215 1.6 12.9 0.00 0.03 0.03 53 1005.9
20260504220042 16 320 1.6 8.0 0.00 0.03 0.03 56 1006.0
20260504214533 16 196 0.0 12.9 0.00 0.03 0.03 55 1005.9
20260504213031 16 204 3.2 16.1 0.00 0.03 0.03 54 1005.8